www.pogodaiklimat.ru

Погода и климат >> Архив погоды >> Иран >> Казвин


ПОГОДА в Казвине

  • Прогноз погоды в Казвине
  • Монитор погоды в Казвине

АРХИВ ПОГОДЫ в Казвине

Время (UTC), дата Ветер
(напр.,м/с)
 
Видим.   Явления Облачность Т
(С)
Тd
(С)
f
(%)
Тe
(С)
Тes
(С)
Комфортность P
(гПа)
Po
(гПа)
Тmin
(С)
Tmax
(С)
R
(мм)
R24
(мм)
S
(см)
03 16.08 штиль 0 15 км ясно +19.1 +7.5 47 +20 +21 1006.3 871.7 +15.8
06 16.08 ЮВ 3 10 км ясно +28.5 +12.1 36 +30 +40 жарко 1006.1 871.9
09 16.08 ЮЗ 3 12 км ясно +32.6 +8.3 22 +31 +47 жарко 1004.5 870.6
12 16.08 ЮЗ 2 20 км ясно +35.2 +3.6 14 +32 +41 жарко 1002.2 868.4
15 16.08 ЮЗ 1 30 км ясно +31.6 +1.6 15 +29 +29 жарко 1001.6 867.4 +36.4
18 16.08 С 1 20 км ясно +24.1 +1.8 23 +23 +23 комфорт 1002.3 868.4
21 16.08 С 3 20 км ясно +22.6 +2.3 26 +22 +22 комфорт 1001.7 868.4
00 17.08 СВ 1 20 км ясно +22.8 +1.8 25 +22 +22 комфорт 1001.1 868.5
03 17.08 СВ 2 20 км ясно +23.7 +3.4 27 +23 +24 комфорт 1002.2 868.9 +20.5
06 17.08 ЮВ 4 15 км ясно +30.1 +2.1 17 +28 +36 жарко 1003.3 869.6
09 17.08 ЮВ 4 30 км ясно +33.9 -1.0 11 +30 +43 жарко 1001.5 868.4
12 17.08 В 3 30 км ясно +35.5 +0.9 11 +32 +39 жарко 998.9 866.6
15 17.08 В 1 25 км ясно +31.9 +3.2 16 +29 +29 жарко 998.8 866.0 +35.9
18 17.08 З 1 20 км ясно +24.0 +4.3 28 +24 +24 комфорт 1000.4 867.1
21 17.08 С 3 20 км ясно +21.5 +2.3 28 +21 +21 комфорт 1000.6 867.5
00 18.08 С 3 18 км ясно +21.7 +0.8 25 +21 +21 комфорт 1000.9 868.1
03 18.08 СВ 1 10 км ясно +20.1 +4.3 35 +22 +23 комфорт 1003.5 869.4 +16.8
06 18.08 Ю 2 12 км ясно +30.7 +3.0 17 +28 +40 жарко 1004.2 870.5
09 18.08 ЮВ 2 20 км ясно +33.9 +0.4 12 +31 +49 жарко 1003.3 869.8
12 18.08 В 2 18 км 1/0
[Ac trans]
+35.9 +0.9 11 +32 +41 жарко 1001.1 868.4
15 18.08 ЮВ 2 15 км 1/0
[Ac trans]
+31.7 +2.9 16 +29 +29 жарко 1002.6 868.4 +36.3
18 18.08 СЗ 1 15 км ясно +23.9 +1.5 23 +23 +23 комфорт 1003.1 869.5
21 18.08 штиль 0 15 км ясно +20.5 +3.2 32 +21 +21 комфорт 1003.8 870.1
00 19.08 С 2 15 км ясно +17.9 +2.1 35 +18 +18 1004.9 870.9
03 19.08 С 2 15 км 1/0
[Ac und]
+21.7 +1.2 26 +21 +22 комфорт 1007.0 872.6 +17.6
06 19.08 Ю 1 10 км 1/0
[Ac trans]
+31.3 +3.2 17 +29 +42 жарко 1007.1 873.1
09 19.08 Ю 3 15 км ясно +34.6 +1.0 12 +31 +46 жарко 1006.4 872.4
12 19.08 ЮЗ 3 17 км ясно +35.6 +1.4 12 +32 +40 жарко 1005.1 871.0
15 19.08 С 2 20 км ясно +32.1 +6.4 20 +30 +30 жарко 1004.7 870.9 +36.4
18 19.08 штиль 0 18 км ясно +25.4 +4.8 27 +25 +25 комфорт 1005.5 872.1
21 19.08 ЮВ 1 16 км ясно +20.6 +7.3 42 +23 +23 комфорт 1006.6 872.7
00 20.08 С 1 14 км ясно +17.8 +7.6 51 +19 +19 1007.3 873.1
03 20.08 СЗ 1 10 км ясно +17.3 +7.1 51 +18 +19 1010.2 874.8 +15.1
06 20.08 ЮВ 2 12 км ясно +26.8 +6.4 27 +26 +38 жарко 1010.9 875.9
09 20.08 ЮЗ 3 16 км ясно +32.0 +2.0 15 +29 +44 жарко 1009.6 874.7
12 20.08 ЮЗ 2 20 км ясно +34.5 +3.4 14 +32 +40 жарко 1007.4 872.8
15 20.08 Ю 1 15 км ясно +29.6 +11.5 33 +30 +30 жарко 1007.4 872.0 +34.6
18 20.08 З 1 10 км ясно +21.8 +9.4 45 +23 +23 комфорт 1008.4 873.1
21 20.08 СВ 2 10 км ясно +18.7 +9.2 54 +20 +20 1008.2 873.4
00 21.08 З 2 10 км ясно +17.7 +8.9 56 +18 +18 1008.1 873.6
03 21.08 штиль 0 10 км ясно +16.8 +9.0 60 +17 +18 1010.7 874.6 +14.6
06 21.08 ЮЗ 2 10 км ясно +25.7 +9.8 37 +26 +38 жарко 1011.2 875.3
09 21.08 ЮВ 2 14 км ясно +30.9 +8.6 25 +30 +48 жарко 1009.2 874.0
12 21.08 ЮЗ 2 15 км ясно +33.7 +7.1 19 +32 +40 жарко 1006.0 871.5
15 21.08 СВ 1 15 км 1/1 1200 м
[Sc diur, vesp]
+30.2 +7.4 24 +29 +29 жарко 1006.1 870.7 +34.2
18 21.08 З 3 15 км ясно +21.6 +7.8 41 +23 +23 комфорт 1006.9 871.5
21 21.08 В 1 15 км ясно +19.2 +7.9 48 +21 +21 комфорт 1006.3 871.6
00 22.08 С 1 12 км ясно +16.7 +7.0 53 +18 +18 1006.8 872.0
03 22.08 СЗ 1 10 км ясно +17.5 +7.4 51 +19 +19 1008.5 872.9 +15.3
06 22.08 Ю 2 10 км ясно +28.6 +7.0 26 +28 +39 жарко 1008.1 873.1
09 22.08 Ю 2 15 км ясно +31.7 +6.5 21 +30 +48 жарко 1006.8 872.1
12 22.08 ЮЗ 3 15 км ясно +33.5 +4.5 16 +31 +38 жарко 1004.9 870.2
15 22.08 ЮЗ 1 15 км ясно +30.0 +8.0 25 +29 +29 жарко 1004.5 869.5 +34.3
18 22.08 С 2 15 км ясно +22.6 +3.1 28 +22 +22 комфорт 1005.2 870.6
21 22.08 В 1 15 км ясно +21.6 +3.4 30 +22 +22 комфорт 1005.1 871.0

 

Местоположение метеостанции Казвин (Иран): широта 36.25 долгота 50.00 высота над уровнем моря 1278 м.

В архиве по умолчанию представлена погода в Казвине за последнюю неделю. Архивные данные за месяц целиком и за предыдущие месяцы, начиная с января 2011 года, Вы можете получить, выбрав интересующий диапазон дат из раскрывающегося списка и нажав кнопку "Ввод!".


*Определитесь, кто Вы:
робот инопланетянин человек

Внимание! Время в таблицах - всемирное. Для получения местного времени необходимо прибавить поправку, которая равна 3.5 ч.

Смотрите также архив погоды в соседних городах и на ближайших метеорологических станциях:

Погода в Рамсаре (Иран) (94 км)
Погода в Реште (Иран) (111 км)
Погода в Тегеране (Иран) (135 км)
Погода в Ноушехре (Иран) (141 км)
Погода в Энзели (Иран) (144 км)
Погода в Зенджане (Иран) (144 км)
Погода в Хамадане (Иран) (205 км)
Погода в Араке (Иран) (240 км)
Погода в Бабольсере (Иран) (243 км)
Погода в Миане (Иран) (244 км)

Пояснения к столбцам:

Ветер - указаны скорость ветра в м/с - средняя за 10 мин, порывы в срок и между сроками (в фигурных скобках) и направление, откуда дует ветер: С - северный, СВ - северо-восточный, В - восточный, ЮВ - юго-восточный, Ю - южный, ЮЗ - юго-западный, З - западный, СЗ - северо-западный.
Видимость - горизонтальная дальность видимости в метрах или километрах. При видимости от 1 до 10 км при отсутствии осадков обычно наблюдается дымка, при ухудшении видимости до 1 км и менее - туман. В сухую погоду видимость может ухудшаться дымом, пылью или мглою.
Явления - указаны атмосферные явления, наблюдавшиеся в срок или в последний час перед сроком; фигурными скобками обозначены явления, наблюдавшиеся между сроками (за 1-3 часа до срока); квадратными скобками обозначены град или гололедные отложения с указанием их диаметра в мм.
Облачность - указаны через наклонную черту общая и нижняя облачность в баллах и высота нижней границы облаков в метрах; квадратными скобками обозначены формы облаков: Ci - перистые, Cs - перисто-слоистые, Cc - перисто-кучевые, Ac - высококучевые, As - высокослоистые, Sc - слоисто-кучевые, Ns - слоисто-дождевые, Cu - кучевые, Cb - кучево-дождевые. Подробнее классификацию облаков см. в Атласе облаков (PDF).
T - Температура воздуха - температура, измеренная на высоте 2 м над землей.
Td - Температура точки росы - температура, при понижении до которой содержащийся в воздухе водяной пар достигнет насыщения.
f - Относительная влажность воздуха - влажноcть воздуха, измеренная на высоте 2 м над землей.
Te - Эффективная температура - температура, которую ощущает одетый по сезону человек в тени. Характеристика душности погоды. При расчете учитывается влияние влажности воздуха и скорости ветра на теплоощущения человека.
Tes - Эффективная температура на солнце - температура, которую ощущает человек, с поправкой на солнечный нагрев. Характеристика знойности погоды. Зависит от высоты солнца над горизонтом, облачности и скорости ветра. Ночью, в пасмурную погоду, а также при ветре 12 м/с и более поправка равна нулю.
P - Атмосферное давление - приведенное к уровню моря атмосферное давление.
Po - Атмосферное давление - измеренное на уровне метеостанции атмосферное давление.
Tmin - Минимальная температура - минимум температуры воздуха на высоте 2 м над землей.
Tmax - Максимальная температура - максимум температуры воздуха на высоте 2 м над землей.
R - Количество осадков - Количество выпавших осадков за период времени, мм. При наведении курсора мыши на число - период времени, за который выпало указанное количество осадков.
R24 - Количество осадков - Количество выпавших осадков за 24 часа, мм.
S - Снежный покров - Высота снежного покрова, см. При наведении курсора мыши на число - состояние снежного покрова и степень покрытия местности в баллах.